Location: Bern�tre
(50.1974°N, 2.0915°E)
Time: 04:24:19
(UTC+00:00)

Cosmos 2195 Rocket - Pass Details

Date: 18 September 2020
Orbit: 948 x 994 km, 82.9° (Epoch: 29 October)

Event Time Altitude Azimuth Distance (km) Brightness Sun altitude
Rises 19:51:04 0° 351° (N) 3,707 8.0 -18.3°
Reaches altitude 10° 19:53:38 10° 355° (N) 2,748 7.3 -18.7°
Maximum altitude 19:59:54 65° 77° (ENE) 1,065 4.5 -19.6°
Enters shadow 20:03:08 29° 151° (SSE) 1,685 5.3 -20.0°
